Hourly Data Report for October 24, 2016

All times are specified in Local Standard Time (LST). Add 1 hour to adjust for Daylight Saving Time where and when it is observed.

IQALUIT CLIMATE
NUNAVUT

63°44'50.000" N
68°32'40.000" W
33.50 m
2402592
71321
XFB

Download Data

Hourly Data (October 2016)
Hourly Data Report for October 24, 2016
Temp Definition
°C
Dew Point Temp Definition
°C
Rel Hum Definition
%
Wind Dir Definition
10's deg

Wind Spd Definition
km/h
Visibility Definition
km
Stn Press Definition
kPa
Hmdx Definition


Wind Chill Definition


Weather Definition


TIME
00:00 -15.3 -19.1 73 34 29   102.52   -26 LegendNANA
01:00 -16.2 -19.5 76 34 32   102.51   -28 LegendNANA
02:00 -15.5 -18.0 81 34 39   102.48   -28 LegendNANA
03:00 -16.2 -18.7 81 34 32   102.45   -28 LegendNANA
04:00 -16.1 -18.8 80 31 30   102.38   -27 LegendNANA
05:00 -15.1 -18.0 79 34 30   102.33   -26 LegendNANA
06:00 -15.8 -18.4 81 32 19   102.35   -25 LegendNANA
07:00 -15.8 -18.0 83 33 32   102.29   -27 LegendNANA
08:00 -16.1 -18.6 81 33 34   102.32   -28 LegendNANA
09:00 -15.0 -17.1 84 33 31   102.27   -26 LegendNANA
10:00 -14.2 -16.3 84 33 36   102.22   -26 LegendNANA
11:00 -12.6 -15.0 82 33 37   102.13   -24 LegendNANA
12:00 -11.2 -13.4 84 33 32   102.12   -21 LegendNANA
13:00 -10.9 -13.3 82 33 31   102.07   -21 LegendNANA
14:00 -10.6 -13.3 81 32 27   102.04   -20 LegendNANA
15:00 -11.4 -14.0 81 31 21   102.05   -20 LegendNANA
16:00 -11.0 -13.4 83 33 25   102.00   -20 LegendNANA
17:00 -10.7 -13.1 82 30 21   102.00   -19 LegendNANA
18:00 -11.3 -13.6 83 29 26   101.97   -21 LegendNANA
19:00 -11.1 -13.4 83 32 31   101.94   -21 LegendNANA
20:00 -11.8 -14.3 82 33 22   101.93   -21 LegendNANA
21:00 -11.5 -13.8 83 33 31   101.93   -22 LegendNANA
22:00 -10.4 -12.8 83 34 33   101.95   -20 LegendNANA
23:00 -9.4 -11.7 83 34 37   101.90   -20 LegendNANA

Notes on Data Quality.

Legend

  • E = Estimated
  • M = Missing
  • NA = Not Available
  • ‡ = Partner data that is not subject to review by the National Climate Archives
Date modified: